Location: Unspecified
(40.7945°N, 111.1337°W)
Time: 23:26:33
(UTC-06:00)

Altair - Pass Details

Date: 29 June 2019
Orbit: 1501 x 1683 km, 47.2° (Epoch: 12 October)

Event Time Altitude Azimuth Distance (km) Brightness Sun altitude
Rises 02:06:18 0° 298° (WNW) 4,820 10.3 -25.4°
Reaches altitude 10° 02:09:30 10° 293° (WNW) 3,855 9.7 -25.2°
Maximum altitude 02:18:49 49° 223° (SW) 2,050 7.7 -24.9°
Enters shadow 02:21:55 39° 180° (S) 2,332 7.9 -24.8°
